Location: Newark
(45.8667°N, 9.7333°E)
Time: 18:18:52
(UTC+00:00)

Vanguard 2 Rocket - Pass Details

Date: 28 January 2020
Orbit: 554 x 3326 km, 32.9° (Epoch: 16 February)

Event Time Altitude Azimuth Distance (km) Brightness Sun altitude
Rises 06:50:12 0° 250° (WSW) 3,091 9.2 -0.5°
Reaches altitude 10° 06:52:44 10° 234° (SW) 2,397 8.8 -0.1°
Maximum altitude 06:56:58 22° 185° (S) 2,109 9.1 0.5°
Drops below altitude 10° 07:02:56 10° 139° (SE) 3,519 11.5 1.4°
Sets 07:07:42 0° 126° (SE) 5,050 13.4 2.2°
